Tracking 19832 objects as of 25-Aug-2019
HD Live streaming from Space Station
objects crossing your sky now

COSMOS 2251 DEB

Track COSMOS 2251 DEB now!
10-day predictions


NORAD ID: 36622
Int'l Code: 1993-036BEL
Perigee: 633.4 km
Apogee: 759.6 km
Inclination: 74.0 °
Period: 98.6 minutes
Semi major axis: 7067 km
RCS: 0.0002 m2 (small)
Launch date: June 16, 1993
Source: Commonwealth of Independent States (former USSR) (CIS)
Launch site: PLESETSK MISSILE AND SPACE COMPLEX (PKMTR)

Note: This is SATELLITE DEBRIS
aabbcc
Your satellite tracking list
Your tracking list is empty




NASA's NSSDC Master Catalog

Two Line Element Set (TLE):
1 36622U 93036BEL 19236.42467887 +.00000164 +00000-0 +38016-4 0  9990
2 36622 074.0210 259.9774 0089333 252.1989 106.9416 14.61181728330316
Source of the keplerian elements: AFSPC